Location: Aldenham
(51.6667°N, 0.3500°W)
Time: 20:43:18
(UTC+00:00)

Vanguard 2 Rocket - Pass Details

Date: 25 February 2026
Orbit: 553 x 3287 km, 32.9° (Epoch: 6 March)

Event Time Altitude Azimuth Distance (km) Brightness Sun altitude
Rises 17:04:49 0° 271° (W) 6,739 13.0 3.5°
Reaches altitude 10° 17:15:11 10° 241° (WSW) 4,945 12.7 2.0°
Maximum altitude 17:17:34 11° 231° (SW) 4,673 12.0 1.7°
Drops below altitude 10° 17:19:47 10° 221° (SW) 4,506 11.5 1.3°
Sets 17:27:01 0° 186° (S) 4,704 10.8 0.3°
